Radiation Dose measured at exhaust stack monitor of Fukushima Daiichi Nuclear Power Station
Date,Time,Unit 5 6 shared exhaust cylinders,Wind Direction,Wind Velocity(m/s)
2023/07/13,00:00,3.8,south,0.8
2023/07/13,00:10,3.7,southwest,1.4
2023/07/13,00:20,3.6,southwest,1.5
2023/07/13,00:30,3.5,south,1.7
2023/07/13,00:40,3.7,south-southeast,2.6
2023/07/13,00:50,3.8,south,1.5
2023/07/13,01:00,3.8,southwest,3.7
2023/07/13,01:10,3.7,southwest,4.2
2023/07/13,01:20,3.7,west-southwest,3.9
2023/07/13,01:30,3.6,west-northwest,6.7
2023/07/13,01:40,3.6,west-northwest,4.3
2023/07/13,01:50,3.6,south-southwest,3.3
2023/07/13,02:00,3.5,west,5.0
2023/07/13,02:10,3.7,west,3.6
2023/07/13,02:20,3.6,west,4.6
2023/07/13,02:30,3.7,west,7.1
2023/07/13,02:40,3.6,west-southwest,5.5
2023/07/13,02:50,3.7,west-southwest,4.4
2023/07/13,03:00,3.6,west,6.7
2023/07/13,03:10,3.5,west,6.8
2023/07/13,03:20,3.6,west,4.6
2023/07/13,03:30,3.6,west-northwest,8.8
2023/07/13,03:40,3.7,west,7.7
2023/07/13,03:50,3.7,west-northwest,4.9
2023/07/13,04:00,3.6,west-northwest,3.8
2023/07/13,04:10,3.6,west-northwest,5.7
2023/07/13,04:20,3.5,west-northwest,7.7
2023/07/13,04:30,3.7,west,5.6
2023/07/13,04:40,3.5,west,5.8
2023/07/13,04:50,3.7,west,4.6
2023/07/13,05:00,3.5,west-northwest,3.8
2023/07/13,05:10,3.5,west,3.6
2023/07/13,05:20,3.6,west,4.1
2023/07/13,05:30,3.6,west,5.3
2023/07/13,05:40,3.6,west,5.4
2023/07/13,05:50,3.5,west-southwest,3.8
2023/07/13,06:00,3.7,west,3.5
2023/07/13,06:10,3.7,west,4.7
2023/07/13,06:20,3.7,west-southwest,4.3
2023/07/13,06:30,3.8,west-southwest,3.7
2023/07/13,06:40,3.8,west,2.3
2023/07/13,06:50,3.5,west-southwest,1.5
2023/07/13,07:00,3.5,west,3.4
2023/07/13,07:10,3.8,west,3.9
2023/07/13,07:20,3.6,west-northwest,4.2
2023/07/13,07:30,3.6,west-northwest,3.5
2023/07/13,07:40,3.6,west,2.6
2023/07/13,07:50,3.8,west,4.1
2023/07/13,08:00,3.5,west,4.2
2023/07/13,08:10,3.7,west,6.7
2023/07/13,08:20,3.4,west,6.3
2023/07/13,08:30,3.7,west-northwest,7.0
2023/07/13,08:40,3.7,west-northwest,8.1
2023/07/13,08:50,3.6,west,7.9
2023/07/13,09:00,3.6,west-northwest,6.9
2023/07/13,09:10,3.8,west,7.1
2023/07/13,09:20,3.7,west,6.6
2023/07/13,09:30,3.6,west-northwest,7.5
2023/07/13,09:40,3.5,west,6.8
2023/07/13,09:50,3.7,west-northwest,6.4
2023/07/13,10:00,3.7,west-northwest,6.5
2023/07/13,10:10,3.7,west,8.4
2023/07/13,10:20,3.5,west,6.4
2023/07/13,10:30,3.6,west,7.1
2023/07/13,10:40,3.6,west,6.4
2023/07/13,10:50,3.5,west-southwest,7.6
2023/07/13,11:00,3.8,west-southwest,8.0
2023/07/13,11:10,3.6,west-southwest,9.7
2023/07/13,11:20,3.6,west-southwest,6.7
2023/07/13,11:30,3.8,west-southwest,6.8
2023/07/13,11:40,3.6,west,6.3
2023/07/13,11:50,3.8,west,7.8
2023/07/13,12:00,3.5,west-southwest,5.7
2023/07/13,12:10,3.7,west,5.1
2023/07/13,12:20,3.6,west-northwest,5.7
2023/07/13,12:30,3.7,west,5.1
2023/07/13,12:40,3.8,west,3.3
2023/07/13,12:50,3.6,west-southwest,4.1
2023/07/13,13:00,3.6,west,4.8
2023/07/13,13:10,3.7,west,5.6
2023/07/13,13:20,3.7,west,6.0
2023/07/13,13:30,3.6,west-northwest,5.4
2023/07/13,13:40,3.6,west,5.6
2023/07/13,13:50,3.5,west-northwest,5.3
2023/07/13,14:00,3.7,west-northwest,8.3
2023/07/13,14:10,3.6,west-northwest,5.0
2023/07/13,14:20,3.8,north,3.2
2023/07/13,14:30,3.7,north,4.4
2023/07/13,14:40,3.6,north,5.1
2023/07/13,14:50,3.7,north-northeast,3.7
2023/07/13,15:00,3.6,north-northeast,3.7
2023/07/13,15:10,3.6,north-northeast,5.3
2023/07/13,15:20,3.6,north-northeast,4.5
2023/07/13,15:30,3.7,north-northeast,4.0
2023/07/13,15:40,3.6,north-northeast,4.4
2023/07/13,15:50,3.5,north-northeast,4.7
2023/07/13,16:00,3.4,northeast,3.3
2023/07/13,16:10,3.5,northeast,2.9
2023/07/13,16:20,3.5,northeast,2.3
2023/07/13,16:30,3.6,northeast,3.2
2023/07/13,16:40,3.8,east-northeast,3.1
2023/07/13,16:50,3.7,northeast,2.8
2023/07/13,17:00,3.6,northeast,2.6
2023/07/13,17:10,3.6,northeast,2.0
2023/07/13,17:20,3.6,northeast,2.3
2023/07/13,17:30,3.6,northeast,2.2
2023/07/13,17:40,3.6,north-northeast,2.2
2023/07/13,17:50,3.7,northeast,1.7
2023/07/13,18:00,3.6,northeast,2.3
2023/07/13,18:10,3.6,northeast,2.5
2023/07/13,18:20,3.8,northeast,1.9
2023/07/13,18:30,3.8,east-northeast,1.7
2023/07/13,18:40,3.6,northeast,2.6
2023/07/13,18:50,3.6,northeast,3.7
2023/07/13,19:00,3.7,east-northeast,3.4
2023/07/13,19:10,3.6,east-northeast,2.3
2023/07/13,19:20,3.9,east-northeast,3.1
2023/07/13,19:30,3.7,northeast,3.2
2023/07/13,19:40,3.6,east-northeast,3.7
2023/07/13,19:50,3.6,northeast,2.3
2023/07/13,20:00,3.7,northeast,2.8
2023/07/13,20:10,3.5,northeast,2.2
2023/07/13,20:20,3.7,north,2.3
2023/07/13,20:30,3.5,north-northeast,2.3
2023/07/13,20:40,3.6,north,3.0
2023/07/13,20:50,3.7,north-northwest,1.9
2023/07/13,21:00,3.5,west-northwest,1.2
2023/07/13,21:10,3.6,west,1.5
2023/07/13,21:20,3.6,south-southwest,2.0
2023/07/13,21:30,3.6,south-southwest,1.7
2023/07/13,21:40,3.6,south-southwest,1.5
2023/07/13,21:50,3.6,south,0.6
2023/07/13,22:00,3.6,south-southwest,1.1
2023/07/13,22:10,3.7,south,0.9
2023/07/13,22:20,3.6,south,1.9
2023/07/13,22:30,3.6,south-southwest,1.5
2023/07/13,22:40,3.7,south-southwest,2.2
2023/07/13,22:50,3.7,south-southwest,2.8
2023/07/13,23:00,3.6,southwest,2.2
2023/07/13,23:10,3.5,south-southwest,2.2
2023/07/13,23:20,3.7,south,3.3
2023/07/13,23:30,3.7,south-southwest,3.8
2023/07/13,23:40,3.4,south-southwest,4.1
2023/07/13,23:50,3.6,south,4.9
